Theta_e
307 307 309 308 308 294 300 304 298 301 308 305 301 307 309 309 304 301 312 311 315 321 323 326 328 328 329 331 333 332 334 337 335 333 333 331 330 331 333 332 333 335 336 339 340 340 341 343 345 347 349 351 352 354 355 357 358 358 357 358 357 358 360
308 310 309 307 308 306 302 295 299 309 310 308 301 295 301 298 293 300 309 306 309 310 306 323 323 324 326 328 331 332 332 336 335 332 333 333 331 331 332 333 334 336 337 339 339 340 341 342 343 346 349 351 353 355 356 357 357 356 357 358 358 358 360
307 309 307 304 306 307 301 298 306 297 297 294 302 298 293 293 293 298 304 309 310 310 310 318 318 321 324 327 330 330 330 331 332 332 332 333 335 331 331 332 334 335 336 338 338 339 341 342 344 348 350 352 354 355 356 357 357 357 358 359 358 359 360
305 305 302 294 297 304 306 306 300 305 298 296 297 297 299 297 293 297 299 307 302 313 312 318 319 321 324 327 329 329 330 330 332 332 333 333 335 333 331 332 334 334 335 337 338 339 340 342 343 348 349 351 354 354 355 356 358 358 357 356 357 357 359
304 296 302 296 297 295 297 297 295 298 302 304 300 305 298 295 294 294 297 297 303 312 322 320 321 322 325 327 328 329 331 332 333 334 333 334 333 335 331 332 334 334 335 336 338 340 341 343 345 347 348 350 353 353 354 355 355 356 356 355 355 357 357
297 298 304 303 304 302 298 295 294 296 295 295 293 293 304 302 297 291 293 295 306 321 331 327 324 326 327 329 330 330 332 333 334 334 334 334 333 334 335 332 335 334 335 335 337 340 340 341 343 344 345 349 350 351 353 354 355 355 356 355 356 355 356
299 303 306 308 307 305 303 300 297 300 298 299 297 286 293 300 299 304 301 301 305 323 328 328 328 328 329 330 332 332 333 334 335 336 336 335 333 333 335 336 334 335 335 335 335 338 339 340 341 342 342 343 347 350 351 352 353 352 354 353 355 355 355
304 306 308 308 307 306 302 301 301 300 297 299 297 297 302 297 301 295 298 301 307 324 327 327 329 330 330 331 331 331 333 335 336 336 336 336 334 334 334 337 335 334 335 334 334 335 339 340 340 340 341 342 344 348 350 350 350 350 352 350 353 354 353
294 299 303 305 305 304 299 297 299 301 301 302 301 300 301 295 299 301 300 297 301 322 329 327 328 328 328 329 330 331 332 334 335 335 335 337 339 335 333 336 337 337 335 333 334 336 337 339 340 339 340 341 341 344 348 348 349 349 349 349 352 352 351
288 289 289 292 295 298 301 303 302 304 302 303 300 293 296 288 299 302 300 303 313 322 325 325 325 327 327 328 329 329 329 330 333 335 338 336 336 339 341 338 336 335 335 338 337 336 340 339 339 339 339 340 340 344 346 347 347 348 346 350 350 351 350
292 295 298 304 306 301 297 301 302 301 303 306 304 301 297 292 302 305 308 312 312 316 321 322 324 325 326 326 328 327 328 331 331 332 334 334 335 335 338 344 340 336 337 338 339 341 347 344 338 339 340 342 341 344 344 346 347 347 348 350 349 349 350
301 302 302 303 305 300 301 301 301 303 304 308 306 304 301 306 304 299 311 314 313 314 318 321 322 324 326 327 327 327 327 331 332 334 334 337 336 337 338 342 342 338 335 339 339 338 343 349 348 340 342 350 347 343 342 346 347 347 352 350 348 348 348
301 302 302 304 303 303 302 302 304 306 309 309 306 307 312 312 306 302 311 313 312 314 318 320 321 324 326 327 330 331 331 330 332 332 334 333 334 335 337 341 342 340 339 337 338 339 340 348 347 347 348 352 348 345 345 348 347 347 351 350 348 348 347
300 301 303 304 303 302 302 304 307 307 308 307 308 309 313 313 311 313 314 314 313 317 320 322 323 327 328 329 332 333 330 330 330 330 331 333 334 335 338 339 340 340 338 338 339 341 347 352 352 351 350 352 349 346 347 348 348 348 353 351 350 349 347
298 301 303 303 302 302 303 304 306 308 309 308 308 309 311 314 312 313 311 311 312 317 322 323 327 329 330 329 328 329 329 331 332 330 329 331 333 334 333 335 337 335 335 339 341 340 341 346 347 346 348 351 355 357 357 358 358 356 354 354 352 351 355
295 300 301 301 303 304 303 303 303 307 307 305 307 306 309 308 308 311 311 307 308 318 324 324 324 325 325 325 326 327 328 330 331 331 332 331 333 333 335 336 336 335 335 337 339 341 343 343 342 343 344 345 347 349 357 358 360 361 357 350 346 345 347
294 299 301 300 301 300 299 298 303 307 308 309 310 311 312 311 312 308 305 306 314 317 321 322 322 323 323 323 324 324 325 329 330 329 331 331 332 334 334 334 334 335 334 337 339 341 342 343 343 344 346 347 348 350 354 358 359 348 346 346 346 346 346
293 299 300 301 297 291 294 305 310 310 307 307 306 306 309 311 313 310 313 313 317 319 320 320 320 321 321 323 325 327 328 329 330 331 332 333 335 335 336 337 335 334 335 339 340 340 339 343 345 345 348 349 349 353 354 351 346 344 346 348 348 347 347
294 297 298 293 289 294 306 309 309 312 312 311 309 309 310 311 313 315 313 314 316 318 319 321 322 323 325 325 325 327 330 331 331 330 331 332 332 332 334 334 336 338 337 336 337 340 342 346 345 345 344 347 349 349 350 348 345 344 344 345 348 346 346
297 294 293 286 292 305 308 309 310 312 313 312 311 307 309 311 311 312 312 313 316 318 319 321 325 324 326 326 327 328 330 333 333 331 331 333 335 333 333 333 334 335 336 337 338 338 342 345 347 347 347 349 347 347 348 346 344 345 346 346 347 345 345
293 294 292 296 304 304 305 305 307 306 303 306 305 300 304 311 312 312 312 314 316 318 320 321 323 325 325 322 323 330 330 332 333 332 333 335 334 335 337 338 338 338 338 337 338 338 339 342 345 347 347 346 346 345 346 347 344 342 342 342 343 344 346
298 293 291 293 292 291 298 308 315 312 311 314 314 308 303 311 313 314 313 313 316 317 319 321 323 325 319 315 318 327 330 332 333 335 336 337 337 337 337 338 338 339 340 342 343 341 340 341 344 344 345 345 344 343 344 344 342 341 341 339 342 344 345
296 294 290 290 290 294 303 306 308 311 312 310 314 306 299 308 313 315 315 314 316 318 319 320 322 318 313 314 318 326 329 330 333 333 334 336 337 337 336 337 337 338 338 340 340 341 340 338 341 343 344 343 342 341 342 342 342 341 342 341 341 340 341
297 295 292 292 297 297 305 306 309 312 313 310 305 292 295 308 314 314 315 314 315 317 320 321 319 316 312 313 319 328 329 329 330 331 333 334 336 336 336 337 338 337 338 336 336 336 337 338 341 341 342 341 340 339 339 339 338 337 338 341 341 342 343
296 297 294 297 299 307 307 308 313 314 316 309 296 289 300 312 314 315 315 315 316 318 320 320 316 320 321 323 326 328 329 327 327 329 329 329 332 335 336 335 338 334 334 334 334 335 336 338 340 341 339 338 337 338 337 335 335 336 337 339 342 342 340
294 295 294 295 299 305 309 310 313 315 311 297 294 305 315 315 314 315 316 316 317 318 320 319 319 323 326 327 327 326 326 326 326 327 327 327 327 331 337 337 333 330 331 331 333 334 336 337 338 338 336 335 335 336 334 334 335 336 336 336 337 339 341
299 298 294 289 286 303 312 312 310 313 303 303 311 315 314 316 314 315 315 317 319 320 319 322 324 325 325 325 325 325 325 324 324 326 327 325 325 325 325 326 328 327 327 328 330 332 334 336 337 337 335 333 333 334 332 333 334 335 336 335 335 335 336
293 293 291 290 300 307 314 311 303 309 311 315 316 314 311 314 314 315 314 317 320 322 322 321 322 324 324 324 325 325 325 325 325 325 326 328 327 326 326 326 326 327 326 327 328 330 332 334 335 334 334 332 332 331 332 334 334 335 334 333 334 334 335
299 297 300 305 311 311 314 313 312 313 315 317 316 314 313 312 313 316 314 316 322 323 323 323 323 322 324 323 325 324 323 324 324 324 324 326 324 323 323 324 326 325 324 324 326 327 329 330 332 334 333 331 332 331 333 337 336 335 333 332 331 332 333
308 309 310 311 310 310 311 313 315 314 315 317 317 316 314 315 316 315 314 317 322 323 323 321 322 322 323 323 323 324 325 324 325 326 325 326 326 327 325 323 323 323 324 325 325 325 326 328 329 331 332 333 331 332 335 336 335 335 333 332 331 330 329
299 294 311 308 308 310 311 311 313 315 316 315 316 315 315 315 316 316 317 318 320 323 322 321 320 321 323 323 323 324 324 324 323 323 323 324 325 323 321 323 323 322 322 322 322 323 323 324 325 328 329 330 332 332 333 334 336 335 334 332 331 329 327
301 302 309 310 311 311 312 311 310 311 313 314 315 317 317 317 317 317 318 318 317 319 321 322 321 321 322 322 321 321 322 322 323 322 323 321 322 322 323 324 323 322 322 321 321 323 323 323 324 325 325 325 326 329 330 331 332 332 335 331 328 327 326
307 310 311 312 311 311 311 312 313 312 313 313 314 316 315 316 315 315 317 319 318 319 320 322 322 320 320 322 321 321 322 322 322 322 321 321 321 320 321 321 321 319 320 321 322 322 322 323 323 323 322 323 324 324 326 328 331 330 331 331 326 323 325
300 301 305 310 301 301 307 311 313 314 314 313 313 314 314 315 315 315 315 316 318 318 319 322 321 319 319 320 321 321 320 321 322 322 322 322 322 321 321 321 320 321 322 320 320 321 321 322 322 322 323 324 325 327 327 328 329 327 330 330 323 323 324
299 308 311 311 310 309 311 312 314 314 314 314 313 312 313 313 314 314 315 315 315 316 318 321 321 320 320 321 320 320 320 321 322 323 323 323 323 322 322 321 321 321 321 322 322 322 322 324 323 322 322 323 323 325 326 327 326 326 325 327 328 325 326
310 312 312 314 311 308 311 313 314 313 315 313 312 313 313 314 314 314 315 316 315 315 317 319 322 322 321 321 320 319 320 321 321 321 321 321 320 321 322 322 322 321 321 322 322 322 322 325 322 320 320 321 321 323 325 326 327 326 325 326 326 325 325
308 313 313 314 313 312 314 314 313 314 315 314 312 313 313 314 314 315 316 316 317 314 315 315 319 321 321 321 321 320 319 320 321 322 322 320 319 319 320 322 322 322 322 322 321 321 321 321 321 322 321 321 321 322 323 325 326 325 324 325 325 326 328
Wind_Speed
15 9 7 8 1 4 2 6 5 5 2 3 2 2 6 7 5 2 2 2 2 2 2 5 3 10 10 11 12 15 14 11 9 10 9 8 9 9 10 11 13 12 11 10 12 12 11 13 14 14 12 13 13 12 12 12 10 9 10 9 8 8 8
10 10 8 4 8 5 2 2 1 4 6 5 3 1 1 3 2 2 2 5 3 4 2 3 2 5 11 12 12 14 14 12 10 10 10 9 7 11 10 10 12 13 11 11 11 12 12 12 11 14 13 13 13 12 13 13 11 11 10 10 9 8 8
9 10 7 4 6 4 6 4 7 2 1 6 0 1 2 2 2 2 2 3 1 6 4 6 8 9 12 12 12 12 14 15 13 11 11 9 6 8 11 11 12 12 11 12 11 11 13 13 9 13 13 13 12 12 13 13 13 12 11 10 9 8 8
9 7 6 3 4 6 6 2 5 1 3 5 3 5 1 5 1 6 3 3 3 6 4 12 12 11 13 14 14 14 15 16 13 11 11 10 7 5 10 12 12 13 13 13 13 13 13 13 12 13 14 12 14 13 13 12 11 11 10 10 9 9 9
5 3 2 5 5 6 3 1 3 4 2 1 1 2 5 5 3 4 6 3 6 5 3 9 10 9 9 11 13 12 14 15 13 11 11 9 6 5 9 11 12 15 14 13 12 12 13 10 11 13 13 13 14 12 13 13 13 12 12 11 11 9 9
1 1 6 5 6 7 5 5 5 7 4 4 3 3 3 2 3 1 4 3 2 2 2 3 4 7 7 7 8 9 10 11 12 10 10 8 6 4 6 11 12 13 14 14 11 12 13 11 11 14 13 13 13 12 11 12 12 12 12 11 10 9 9
5 9 9 6 6 4 5 8 6 8 4 2 0 1 3 2 2 2 5 7 1 3 5 2 4 4 6 5 6 5 6 10 10 10 11 7 6 7 5 7 9 13 12 13 12 11 13 13 12 13 11 11 13 13 12 11 12 11 11 10 10 9 8
8 9 9 2 6 4 4 4 6 5 6 2 3 2 1 0 1 4 4 4 1 2 4 7 5 4 3 5 5 6 8 7 9 10 11 7 5 5 5 4 4 9 11 11 11 7 11 11 11 11 10 10 11 11 13 11 12 12 12 9 10 9 7
5 8 7 9 6 5 2 3 4 4 4 9 9 4 3 3 2 1 7 4 3 1 4 3 4 7 8 8 9 8 3 3 9 11 9 6 4 4 4 3 2 4 8 9 11 6 8 10 10 9 8 9 9 10 13 11 12 12 10 9 11 10 8
5 5 5 6 10 8 7 6 3 2 6 2 2 5 3 2 2 2 5 4 2 2 2 5 5 4 5 6 5 5 5 9 10 12 8 5 5 3 1 1 1 3 6 6 6 5 5 7 9 9 6 8 8 9 14 12 12 11 9 9 12 12 9
3 6 6 9 8 3 4 9 11 7 7 17 14 2 1 1 3 9 3 12 8 5 3 3 4 4 5 3 4 5 6 6 5 8 10 7 7 11 11 6 2 2 1 5 4 3 4 4 7 9 6 6 7 9 12 11 12 11 8 10 11 11 10
4 3 5 8 8 6 8 9 10 11 12 20 23 13 8 2 11 9 4 5 10 5 5 4 4 5 4 3 2 4 5 5 4 4 4 9 11 11 5 4 5 2 3 2 3 3 2 5 1 4 7 5 7 10 12 10 11 10 7 10 11 11 10
11 11 9 8 8 2 3 8 15 17 20 21 17 17 16 13 8 8 6 12 10 6 6 5 5 5 5 7 7 6 5 3 1 3 7 7 8 7 2 3 3 6 9 8 7 3 3 2 4 0 1 3 6 7 8 9 11 10 8 9 10 10 9
9 10 9 8 6 3 3 9 17 19 22 20 19 19 19 19 13 12 12 12 12 8 6 5 6 4 4 3 3 4 3 2 2 3 1 4 3 2 1 3 5 6 6 6 9 13 7 2 3 6 5 5 4 7 6 7 9 8 8 9 8 8 7
6 9 9 8 3 5 8 18 15 15 18 19 17 15 12 14 13 12 14 10 8 3 4 6 6 6 3 4 5 2 3 3 1 1 2 1 1 1 2 1 3 7 8 8 4 5 8 11 10 10 10 10 8 5 5 5 4 5 6 7 6 4 5
6 7 7 6 7 10 15 15 15 17 18 15 13 12 9 10 9 8 9 5 4 2 2 2 4 7 11 12 13 10 7 6 5 4 4 5 4 0 1 1 3 4 5 3 2 2 5 1 5 8 10 8 7 8 6 4 5 8 11 14 13 12 8
3 11 6 8 2 8 11 9 10 15 18 13 14 13 13 10 6 8 7 3 3 6 3 4 6 7 9 9 10 11 12 8 4 2 3 1 1 5 2 0 1 2 1 2 2 4 4 3 3 3 7 10 8 5 2 3 9 14 14 14 10 5 2
3 10 9 10 3 8 1 6 9 14 15 16 16 12 13 11 7 5 4 5 5 6 7 7 6 8 7 7 7 6 5 7 5 2 2 0 2 4 4 3 1 1 4 3 4 4 3 3 2 4 4 5 5 5 7 12 12 9 7 8 9 6 5
2 5 7 4 5 1 6 8 8 11 16 18 18 14 14 11 9 9 8 8 6 7 7 4 4 6 9 10 12 13 12 8 6 5 4 3 5 5 5 8 8 6 2 2 2 4 3 4 2 3 5 4 4 6 7 11 11 11 6 5 8 6 3
2 2 2 1 3 5 4 5 9 8 8 12 13 14 14 12 11 7 8 8 8 8 8 7 2 6 8 9 12 11 11 9 6 8 10 11 9 9 6 6 7 7 6 4 3 4 2 5 3 3 4 3 5 3 5 8 6 6 6 8 8 5 5
0 2 3 6 2 1 11 6 7 6 6 4 7 6 7 11 9 10 6 8 10 10 9 8 7 2 7 10 11 12 12 10 7 7 9 10 12 9 5 5 7 4 4 4 4 5 4 5 6 5 3 3 2 2 1 4 5 6 7 8 8 6 5
2 0 5 0 3 3 3 3 6 6 9 8 10 7 5 10 10 10 8 8 9 10 9 10 10 5 9 10 8 9 10 9 10 9 8 7 7 9 7 8 9 8 6 2 2 2 6 7 4 4 4 6 7 6 6 5 4 5 5 4 3 5 3
2 2 1 1 3 2 5 8 9 8 8 7 5 8 6 6 8 8 9 10 8 8 9 9 9 8 7 6 5 6 7 8 8 6 7 6 6 6 5 5 8 9 9 8 6 7 10 11 11 9 6 7 9 8 7 7 7 7 3 8 5 4 4
3 3 3 2 2 1 3 8 8 7 6 7 3 1 2 6 9 5 7 9 9 6 8 5 7 7 5 2 2 4 6 7 7 7 6 6 4 3 5 7 8 8 9 12 14 14 12 10 9 11 9 9 9 8 8 8 9 8 7 4 9 5 6
4 8 2 3 1 2 8 7 9 11 7 2 7 3 0 3 4 7 6 8 8 6 5 6 4 4 4 4 5 5 5 7 8 6 5 6 6 6 6 7 7 8 10 11 11 10 7 9 10 9 9 8 8 7 7 9 9 6 5 7 6 10 7
2 1 5 2 3 1 7 3 12 10 2 5 4 2 2 1 4 5 8 7 7 6 5 3 4 4 6 6 5 5 6 4 2 3 4 7 8 5 5 8 6 9 10 11 11 11 10 10 9 7 8 9 7 6 6 8 6 5 7 8 8 9 6
1 1 3 2 1 3 7 3 7 12 5 2 1 1 4 4 5 6 6 7 5 5 4 4 3 4 7 5 3 4 3 3 3 4 4 5 7 8 9 11 10 10 11 11 10 9 8 8 6 5 7 8 6 5 7 7 6 7 8 8 9 10 8
1 2 2 1 1 3 7 8 6 2 5 1 3 3 4 4 5 4 3 5 5 5 4 4 5 4 4 4 4 3 3 2 3 3 3 3 5 7 9 11 10 11 11 10 9 8 7 5 5 5 6 6 6 7 7 5 7 7 8 8 9 9 8
2 2 3 2 3 5 7 9 7 6 6 6 5 5 4 3 4 4 3 4 5 5 4 4 3 3 4 3 3 3 2 3 2 3 4 4 4 4 5 8 8 8 9 9 9 8 6 5 3 4 4 5 5 5 3 4 4 6 7 8 8 8 7
6 6 2 5 3 6 7 7 7 7 6 5 5 4 4 4 3 4 4 3 5 4 3 3 4 4 3 4 3 3 3 2 2 2 3 4 4 4 4 5 5 6 6 6 6 8 7 5 5 4 3 3 5 4 3 4 4 5 5 5 6 7 7
4 2 4 3 5 5 6 9 8 8 7 4 3 5 3 4 5 5 5 4 5 4 4 3 3 2 1 3 4 4 3 4 3 3 3 3 2 3 4 5 6 6 6 6 5 4 6 4 4 3 4 4 3 4 4 3 3 4 7 6 6 6 7
3 4 3 3 6 8 7 5 5 7 6 4 3 3 5 4 4 4 4 5 4 2 4 3 3 3 2 3 4 3 3 3 2 3 4 4 4 3 2 1 3 5 6 6 5 6 5 4 6 7 6 6 7 5 4 3 4 4 4 4 6 6 7
3 4 2 3 8 7 7 7 6 5 4 4 3 3 5 4 3 4 4 4 3 2 5 3 3 3 2 1 1 3 2 3 2 3 3 3 3 3 4 4 5 6 5 5 5 7 5 3 3 4 6 6 5 6 5 4 4 5 4 5 7 6 4
3 2 2 3 4 3 3 4 3 4 4 4 4 3 4 4 3 3 5 4 5 4 3 4 2 3 3 1 0 3 2 2 3 3 3 4 5 4 4 4 4 5 4 4 5 6 4 3 3 3 4 4 4 4 4 5 6 7 5 4 5 6 5
3 3 3 5 7 5 3 4 4 6 4 3 3 3 4 4 4 4 3 4 4 5 4 4 3 2 2 4 1 2 3 4 3 3 3 3 3 4 4 4 4 4 4 4 5 5 3 2 3 4 4 4 5 5 5 4 6 5 4 4 4 6 6
5 5 4 3 3 4 4 4 4 5 4 3 3 4 5 4 3 3 3 2 4 3 4 3 4 2 2 4 3 3 3 4 4 3 4 3 3 3 3 3 3 3 4 5 5 4 5 4 3 3 4 4 4 4 4 4 5 6 5 5 5 5 5
5 4 4 3 5 6 5 7 6 4 3 3 2 3 4 3 3 1 1 2 2 4 3 4 3 3 1 1 3 3 3 3 3 5 5 4 4 2 3 3 3 3 4 4 4 5 4 4 4 5 5 5 5 5 4 4 5 6 5 5 6 6 6
Wind_Direction
160 181 193 227 218 228 344 101 162 212 194 250 285 154 153 115 88 89 133 343 182 298 320 280 118 156 166 162 164 172 182 199 210 197 206 205 189 182 169 171 168 166 166 165 164 161 161 158 164 171 165 167 166 162 166 170 172 174 172 174 174 170 162
173 170 192 232 197 209 345 303 215 217 202 237 194 226 209 139 149 205 215 176 160 153 246 208 108 183 161 173 173 178 180 192 207 201 199 206 197 180 172 168 167 165 163 161 164 163 166 167 167 165 162 166 164 162 168 168 171 176 176 174 175 172 165
169 146 152 231 276 220 212 210 294 20 140 223 7 95 185 120 184 114 283 147 254 199 192 170 185 192 170 178 176 177 184 193 203 205 204 203 200 187 172 164 162 167 162 162 164 163 167 172 168 161 164 164 162 165 169 170 173 177 176 176 176 173 171
134 118 122 204 243 273 262 336 291 183 128 201 193 184 214 117 176 113 270 199 242 210 205 184 184 194 176 177 178 184 191 193 196 199 202 205 194 191 176 166 163 170 169 165 168 167 169 171 170 160 167 166 166 168 170 169 172 176 174 179 177 176 177
99 164 196 177 185 213 257 180 296 287 226 169 150 203 196 156 180 162 138 207 263 252 207 180 180 182 177 174 175 181 187 191 191 193 197 196 185 180 183 167 165 171 173 169 169 171 172 164 165 161 170 170 168 169 172 171 173 178 178 182 178 176 176
302 149 194 183 206 187 200 152 212 229 255 256 248 311 212 204 115 177 148 165 302 329 20 2 158 163 167 169 174 176 180 184 188 196 199 192 190 188 191 172 164 170 172 176 167 171 172 167 167 166 171 166 169 173 172 172 174 181 180 184 175 174 174
334 330 290 223 227 231 209 163 208 209 244 292 92 172 282 313 288 190 134 112 269 352 359 351 104 121 140 150 160 171 173 178 188 194 199 191 191 187 200 173 173 166 172 176 176 172 175 173 168 171 176 170 169 174 169 175 173 182 181 182 170 174 176
320 302 318 252 165 294 310 191 203 187 230 229 231 195 209 290 322 31 46 71 232 321 20 29 55 93 106 144 153 172 185 184 185 189 196 191 191 193 208 153 175 173 170 173 179 175 172 170 173 174 177 174 173 167 169 173 174 178 179 174 164 172 172
331 340 355 358 19 350 340 320 278 227 223 199 240 284 59 17 7 118 117 131 236 336 360 1 51 66 59 54 42 36 31 179 174 185 188 186 176 191 202 182 159 180 168 173 179 172 172 166 174 180 176 179 173 166 170 174 176 178 178 167 163 171 169
15 356 332 325 324 307 292 286 322 313 270 357 154 255 306 301 272 54 105 88 53 57 25 25 7 26 73 63 71 57 65 75 57 25 4 12 7 357 347 320 162 221 175 160 171 168 166 169 174 183 179 181 176 164 174 172 174 178 174 165 167 170 173
185 218 223 225 225 262 329 341 330 322 12 16 358 323 316 161 89 76 65 129 124 118 103 39 5 12 24 51 67 59 39 41 68 109 112 84 36 343 329 359 340 237 221 158 147 145 132 169 179 180 183 186 175 164 174 171 172 175 168 165 168 170 173
215 238 263 283 283 336 346 335 342 344 60 59 60 41 341 48 81 50 11 94 102 76 57 47 7 0 12 357 68 121 118 90 117 129 130 147 157 193 230 338 353 314 251 192 168 157 115 113 160 201 183 165 166 168 171 170 171 169 159 163 167 172 172
344 331 308 302 304 317 310 5 22 40 48 57 57 47 34 57 73 102 46 57 65 33 23 17 27 12 13 14 349 18 59 74 84 125 138 161 182 197 174 53 32 36 31 359 354 322 172 125 131 168 1 145 151 159 160 162 167 166 154 156 168 171 173
315 309 314 296 232 4 324 55 58 57 56 50 47 54 55 58 69 58 56 60 58 36 6 342 314 339 56 69 32 30 38 62 15 347 25 138 151 144 64 57 37 35 34 67 45 359 339 84 90 100 81 327 153 150 158 155 159 161 143 149 159 165 167
315 307 306 300 337 286 48 39 55 69 68 58 53 57 67 78 74 74 47 16 43 4 353 360 341 347 21 37 64 41 342 16 35 313 324 352 80 94 65 45 64 57 30 9 53 78 355 355 49 63 57 28 5 55 81 96 107 136 127 127 118 91 67
315 313 301 292 274 67 40 33 21 60 60 56 49 56 48 63 72 82 97 78 25 314 357 18 12 16 21 26 21 22 13 0 353 342 1 346 341 12 116 85 59 98 120 127 329 167 137 51 61 82 92 85 51 18 13 61 83 68 63 56 49 57 45
294 292 279 274 293 61 34 12 7 70 76 81 72 64 56 56 67 74 67 87 351 20 31 31 11 40 43 47 44 20 9 11 40 27 338 343 20 345 0 11 102 239 148 88 95 358 31 71 43 64 112 127 138 147 79 24 64 69 73 80 76 49 64
266 308 334 348 41 70 213 267 68 74 80 75 69 54 55 52 50 75 63 71 58 49 34 40 20 40 47 48 46 52 20 336 354 48 111 164 126 98 52 12 294 294 17 40 60 52 11 342 110 128 44 42 47 58 70 70 70 45 65 108 131 162 196
306 328 346 13 59 243 275 9 40 88 91 81 75 60 46 40 44 62 54 36 48 48 35 53 76 77 81 56 37 21 12 1 347 352 6 52 101 68 77 60 42 48 153 165 331 57 17 326 302 51 57 62 65 54 65 95 120 143 185 121 112 125 172
306 341 300 80 188 210 281 358 16 9 111 106 87 58 29 21 28 33 54 39 36 33 26 24 98 116 114 73 44 29 19 14 10 8 4 4 55 82 59 68 57 53 24 37 100 128 194 289 341 27 78 50 59 53 68 92 98 97 100 111 126 145 186
12 302 13 101 205 28 11 357 346 332 15 44 96 90 28 4 13 17 45 43 34 25 11 4 0 137 107 53 33 24 25 28 38 23 24 32 49 49 53 69 87 70 47 19 19 345 347 330 350 24 37 70 71 23 70 95 95 98 100 102 106 130 224
133 82 112 1 40 41 297 293 254 331 20 92 114 107 67 354 4 7 30 46 39 23 10 5 350 348 66 37 27 14 18 21 28 24 17 25 58 75 59 68 69 62 56 31 115 59 52 48 11 319 336 61 62 49 50 79 91 89 113 109 148 164 181
3 312 154 45 110 224 243 294 332 354 359 347 107 79 43 332 340 27 16 33 30 36 18 8 3 47 58 56 34 19 30 22 23 29 21 24 55 77 88 82 86 82 75 48 31 48 47 38 26 22 25 54 64 62 56 54 50 45 51 145 121 130 223
44 17 63 83 55 172 305 328 342 348 330 341 326 87 17 329 337 24 39 30 19 21 34 11 38 42 72 57 48 31 48 39 26 26 12 17 18 69 79 63 77 79 74 71 51 37 32 33 43 50 42 50 50 48 53 58 57 51 36 66 151 152 245
18 75 81 92 76 20 344 335 357 331 304 331 58 108 63 290 337 9 35 47 14 18 47 26 62 51 88 90 85 60 46 39 24 14 35 54 50 48 71 90 95 83 73 72 75 69 49 36 35 39 58 62 56 46 48 53 52 46 55 57 83 147 207
25 52 94 132 120 47 330 352 15 343 19 66 123 181 230 346 22 41 40 42 29 6 51 68 68 90 86 83 77 63 54 70 55 8 11 36 31 35 72 65 67 82 86 84 80 73 59 48 41 41 58 63 63 60 61 64 53 48 55 59 65 54 73
59 56 106 82 33 348 345 339 33 8 62 129 46 85 51 39 29 21 50 48 37 20 22 42 107 90 89 82 65 67 71 46 20 20 21 35 54 68 84 86 82 80 81 78 76 80 87 88 84 69 71 81 85 86 82 74 68 62 65 65 67 72 63
119 60 74 168 200 74 28 61 86 42 68 107 63 80 91 53 21 14 18 61 50 18 47 54 44 57 88 107 104 105 103 75 25 21 9 22 66 69 81 90 94 95 90 87 85 81 79 80 81 77 71 69 70 70 74 83 77 67 67 68 71 70 66
77 135 151 210 184 125 103 97 97 85 56 54 68 78 69 54 45 352 35 65 64 38 25 60 70 77 73 78 106 106 98 76 43 24 12 26 55 70 73 77 87 92 102 107 107 101 92 78 70 95 110 106 96 85 88 108 106 100 91 81 77 71 67
78 44 73 160 111 100 100 95 96 91 80 66 68 69 63 34 38 23 17 50 94 73 49 71 51 48 54 103 112 120 102 85 73 40 15 18 22 32 59 75 76 89 90 93 104 106 101 89 74 69 89 114 110 116 117 107 120 116 104 103 104 99 93
94 79 338 87 114 113 92 100 104 103 96 83 82 81 74 60 26 15 1 359 102 108 85 88 94 78 88 92 72 81 87 73 51 51 34 18 36 82 93 97 95 81 82 84 83 91 96 99 98 89 78 61 87 123 111 100 81 105 133 132 120 115 111
120 174 193 87 78 90 94 87 85 83 80 71 49 82 86 70 42 1 358 346 32 88 111 118 113 100 38 89 119 110 114 108 87 54 32 29 40 39 53 60 88 93 90 89 78 61 56 49 52 49 48 56 44 36 46 54 54 60 86 120 134 139 132
71 87 102 99 79 71 77 80 75 83 103 108 73 45 80 71 64 1 340 355 351 39 117 115 122 132 150 106 104 123 111 129 109 79 60 30 39 40 38 46 78 95 100 92 76 74 74 59 59 68 76 71 61 56 44 35 45 59 55 72 82 89 105
143 158 171 135 135 142 106 101 121 117 78 69 65 57 78 85 59 19 11 351 358 3 64 124 133 120 137 113 93 130 134 97 103 96 76 46 39 30 26 43 57 66 71 85 87 84 65 45 41 56 65 61 52 50 54 43 55 65 55 69 80 74 77
164 154 126 105 104 96 130 127 91 77 70 64 85 77 64 59 58 28 17 12 349 357 22 54 96 152 139 143 136 134 149 152 136 132 120 102 72 53 30 37 37 52 50 50 61 73 77 50 49 42 40 35 35 30 35 58 70 69 66 67 89 86 72
108 125 108 75 105 134 120 100 99 92 69 57 52 85 81 58 49 32 356 17 349 344 9 44 56 80 107 119 166 170 146 145 135 127 110 101 93 83 62 56 43 43 46 43 40 29 20 23 45 45 51 41 34 25 19 40 69 80 77 79 76 76 77
146 126 111 108 107 115 125 112 105 103 98 108 107 87 96 73 63 341 12 359 349 358 28 13 49 72 133 153 162 160 139 132 145 147 134 126 121 109 102 98 82 58 46 46 38 30 29 38 40 35 32 20 18 14 4 14 63 79 74 80 85 87 71